[[{"header":{"parameterUnit":"m.s-1","parameterCategory":1,"la1":30.2991,"la2":30.254,"lo1":-89.0895,"lo2":-89.0444,"dy":0.0017,"dx":0.0017,"nx":28,"ny":28,"refTime":"2023-10-01T21:00:00:Z","depth":0,"parameterNumber":2,"parameterNumberName":"U-component_of_WINDS"},"data":[0,0,0,0,0,0,0,0,0,0,0,0,0,0,0,0,0,0,0,0,0,0,0,0,0,0,0,0,0,0,0,0,0,0,0,0,0,0,0,0,0,0,0,0,0,0,0,0,0,0,0,0,0,0,0,0,0,0,-4.8834,-4.8834,0,-4.8808,-4.8808,-4.8807,-4.8681,-4.8678,-4.8675,-4.8672,-4.8647,-4.865,-4.8652,0,0,0,0,0,0,0,0,0,0,0,0,0,-4.8781,-4.8783,-4.8835,-4.8834,-4.8834,-4.8808,-4.8808,-4.8807,-4.8681,-4.8677,-4.8674,-4.867,-4.8647,-4.8649,-4.8652,0,0,0,0,0,0,0,0,0,0,0,0,0,-4.8784,-4.8783,-4.8835,-4.8768,-4.8761,-4.8808,-4.8808,-4.8807,-4.8682,-4.8677,-4.8673,-4.8669,-4.8646,-4.8649,-4.8652,-4.8762,0,0,-4.8662,-4.8663,0,0,0,0,0,0,0,0,-4.8784,-4.8787,-4.8778,-4.8772,-4.8765,-4.8743,-4.878,-4.8792,-4.8683,-4.8712,-4.8672,-4.8666,-4.8683,-4.8683,-4.8688,-4.8761,-4.876,-4.8662,-4.8664,-4.8666,-4.8667,0,0,0,0,0,0,0,-4.8784,-4.8787,-4.8824,-4.8778,-4.877,-4.8741,-4.8736,-4.8781,-4.8723,-4.8709,-4.87,-4.8698,-4.8679,-4.8685,-4.8686,-4.8759,-4.8662,-4.8665,-4.8667,-4.8668,-4.8926,-4.8931,0,0,0,0,0,0,-4.8793,-4.8788,-4.8825,-4.8823,-4.8764,-4.8745,-4.874,-4.8755,-4.8722,-4.8713,-4.8702,-4.8693,-4.8682,-4.8683,-4.8685,-4.8815,-4.8666,-4.8669,-4.8671,-4.8921,-4.8927,-4.8932,0,0,0,0,0,0,-4.8792,-4.8797,-4.8826,-4.8803,-4.8804,-4.8751,-4.8768,-4.8757,-4.8763,-4.8717,-4.8706,-4.8719,-4.8678,-4.8681,-4.8745,-4.8812,-4.867,-4.8673,-4.8915,-4.8923,-4.893,-4.9074,0,0,0,0,0,0,-4.8791,-4.8798,-4.8838,-4.8805,-4.8806,-4.8885,-4.8772,-4.8759,-4.8768,-4.8755,-4.873,-4.8722,-4.8675,-4.8741,-4.8748,-4.8814,-4.8676,-4.8909,-4.8919,-4.8927,-4.9063,-4.9085,-4.9104,0,0,0,0,0,-4.879,-4.8879,-4.884,-4.8846,-4.8854,-4.8889,-4.889,-4.8833,-4.8774,-4.8815,-4.8786,-4.8722,-4.8803,-4.8748,-4.8755,-4.8823,-4.8905,-4.8916,-4.8927,-4.9053,-4.908,-4.9103,0,0,0,0,0,0,-4.8921,-4.8873,-4.883,-4.8911,-4.8905,-4.8867,-4.8917,-4.8863,-4.8875,-4.8863,-4.8793,-4.8788,-4.8864,-4.8849,-4.8789,-4.893,-4.8843,-4.8856,-4.8937,-4.8963,-4.8983,-4.8986,-4.8678,0,0,0,0,0,-4.896,-4.899,-4.8947,-4.9023,-4.9022,-4.8971,-4.8983,-4.8941,-4.8932,-4.8929,-4.8905,-4.89,-4.8925,-4.8942,-4.8962,-4.9059,-4.9054,-4.911,-4.9131,-4.9148,-4.9161,-4.9216,-4.9241,-4.8969,-4.8969,-4.8968,0,0,-4.9039,-4.9017,-4.904,-4.9049,-4.9039,-4.9075,-4.8969,-4.901,-4.9037,-4.8935,-4.8995,-4.8978,-4.8968,-4.9051,-4.9086,-4.9041,-4.9235,-4.9162,-4.9176,-4.918,-4.923,-4.9256,-4.9279,-4.8976,-4.8975,-4.8974,0,0,-4.9203,-4.9188,-4.9251,-4.9244,-4.9231,-4.9197,-4.9213,-4.9184,-4.9169,-4.9227,-4.9153,-4.9185,-4.9227,-4.9225,-4.9229,-4.9396,-4.934,-4.9404,-4.9514,-4.9568,-4.9589,-4.9608,-4.9672,-4.9695,-4.9417,-4.9417,-4.9417,0,-4.9304,-4.9353,-4.929,-4.9338,-4.9345,-4.9255,-4.9321,-4.9317,-4.9312,-4.932,-4.927,-4.9325,-4.9311,-4.9394,-4.9435,-4.944,-4.9459,-4.9408,-4.9591,-4.9609,-4.9626,-4.9686,-4.9709,-4.9426,-4.9425,-4.9424,-4.9423,0,-4.948,-4.9516,-4.9569,-4.9567,-4.958,-4.9636,-4.9584,-4.9605,-4.9562,-4.9534,-4.9598,-4.9579,-4.9596,-4.9611,-4.9569,-4.969,-4.9663,-4.9603,-4.9515,-4.9661,-4.9716,-4.9738,-4.9437,-4.9434,-4.9432,-4.943,0,0,-4.9726,-4.969,-4.9711,-4.9711,-4.9691,-4.9719,-4.9772,-4.9788,-4.981,-4.9809,-4.9855,-4.9895,-4.984,-4.9846,-4.9803,-4.985,-4.9989,-4.9784,-4.9783,-4.9826,-5.0125,-5.0173,-5.02,-4.995,-4.9954,-4.9957,-5.0127,0,-4.9885,-4.9974,-4.992,-5.0018,-5.0053,-4.9969,-5.0016,-5.0011,-4.9987,-5.0014,-4.9987,-5.0019,-4.9942,-4.9946,-4.9988,-4.9963,-5.0048,-4.9949,-4.9995,-4.9997,-5.0003,-5.0228,-5.0277,-5.0438,-5.0148,-5.0151,-5.0154,0,-5.0083,-5.0093,-5.0195,-5.0172,-5.0185,-5.0228,-5.024,-5.0266,-5.026,-5.0239,-5.0247,-5.0194,-5.0247,-5.0159,-5.0234,-5.0168,-5.0184,-5.0175,-5.0179,-5.0184,-5.0086,-5.0242,-5.0487,-5.0513,-5.0186,-5.0184,-5.0181,0,-5.0257,-5.0295,-5.0362,-5.0364,-5.0338,-5.0371,-5.0363,-5.0351,-5.0366,-5.0377,-5.0386,-5.0404,-5.0414,-5.043,-5.0384,-5.0323,-5.0467,-5.0374,-5.0454,-5.0456,-5.049,-5.0489,-5.0746,-5.0495,-5.0495,-5.0495,-5.0494,0,-5.0442,-5.0508,-5.044,-5.0481,-5.0555,-5.0493,-5.0568,-5.055,-5.0542,-5.058,-5.0508,-5.0547,-5.0482,-5.0514,-5.0478,-5.0549,-5.0553,-5.054,-5.053,-5.0548,-5.0551,-5.0559,-5.0548,-5.0501,-5.05,-5.0498,-5.0497,0,-5.0649,-5.0605,-5.0673,-5.0644,-5.0639,-5.0694,-5.067,-5.0709,-5.068,-5.0731,-5.0739,-5.0695,-5.073,-5.0685,-5.0715,-5.0691,-5.0788,-5.076,-5.0791,-5.0784,-5.0868,-5.0863,-5.1142,-5.1177,-5.0902,-5.0904,-5.0907,0,-5.0771,-5.0821,-5.0798,-5.0819,-5.0814,-5.0848,-5.0862,-5.0805,-5.0824,-5.0822,-5.0862,-5.0891,-5.0911,-5.0971,-5.0943,-5.0967,-5.0941,-5.1037,-5.0944,-5.0962,-5.0947,-5.0946,-5.0952,-5.1057,-5.106,-5.1063,-5.1065,0,-5.0995,-5.0972,-5.0995,-5.1013,-5.1033,-5.1044,-5.105,-5.1071,-5.1011,-5.1036,-5.1071,-5.1087,-5.1119,-5.115,-5.1167,-5.1159,-5.1105,-5.1095,-5.1115,-5.1135,-5.1153,-5.1148,-5.0846,-5.1089,-5.1086,-5.1085,-5.1083,-5.1082,-5.1165,-5.1207,-5.1199,-5.1229,-5.1227,-5.1235,-5.1271,-5.1248,-5.1276,-5.1297,-5.1262,-5.1307,-5.1303,-5.132,-5.1319,-5.1355,-5.1314,-5.1343,-5.1351,-5.136,-5.1374,-5.1145,-5.1358,-5.1357,-5.1356,-5.1356,-5.1355,0,-5.1388,-5.1379,-5.1407,-5.1419,-5.1444,-5.1388,-5.1393,-5.1418,-5.1458,-5.1458,-5.148,-5.1523,-5.1553,-5.1529,-5.1554,-5.1588,-5.1564,-5.1598,-5.1596,-5.1596,-5.1408,-5.1389,-5.1617,-5.1617,-5.1617,-5.1617,-5.1617,-5.1617,-5.1507,-5.1576,-5.1553,-5.1622,-5.1612,-5.1656,-5.1664,-5.1672,-5.1673,-5.1723,-5.1748,-5.1732,-5.1723,-5.1749,-5.1775,-5.1767,-5.1782,-5.1825,-5.1809,-5.1634,-5.1609,-5.1584,-5.1567,-5.1828,-5.1828,-5.1994,-5.1996,-5.1997]},{"header":{"parameterUnit":"m.s-1","parameterCategory":1,"la1":30.2991,"la2":30.254,"lo1":-89.0895,"lo2":-89.0444,"dy":0.0017,"dx":0.0017,"nx":28,"ny":28,"refTime":"2023-10-01T21:00:00:Z","depth":0,"parameterNumber":3,"parameterNumberName":"V-component_of_WINDS"},"data":[0,0,0,0,0,0,0,0,0,0,0,0,0,0,0,0,0,0,0,0,0,0,0,0,0,0,0,0,0,0,0,0,0,0,0,0,0,0,0,0,0,0,0,0,0,0,0,0,0,0,0,0,0,0,0,0,0,0,1.1144,1.1143,0,1.1085,1.1085,1.1084,1.1092,1.1093,1.1094,1.1095,1.1027,1.1024,1.1021,0,0,0,0,0,0,0,0,0,0,0,0,0,1.1255,1.1253,1.1144,1.1143,1.1142,1.1085,1.1085,1.1084,1.1092,1.1093,1.1094,1.1095,1.1028,1.1024,1.1021,0,0,0,0,0,0,0,0,0,0,0,0,0,1.1203,1.1253,1.1144,1.114,1.1139,1.1086,1.1085,1.1084,1.1092,1.1093,1.1095,1.1096,1.1029,1.1025,1.1021,1.0965,0,0,1.1008,1.1006,0,0,0,0,0,0,0,0,1.1206,1.1199,1.1141,1.114,1.1139,1.1098,1.1099,1.1044,1.1091,1.1109,1.1095,1.1097,1.1049,1.1043,1.1028,1.0962,1.0959,1.1008,1.1005,1.1003,1.1002,0,0,0,0,0,0,0,1.1209,1.1201,1.112,1.114,1.1139,1.1138,1.1133,1.1088,1.1071,1.1108,1.1108,1.1102,1.1048,1.1032,1.1027,1.0958,1.1008,1.1004,1.1002,1.1,1.0843,1.0841,0,0,0,0,0,0,1.1215,1.1204,1.1122,1.1119,1.1177,1.1135,1.1129,1.1109,1.1072,1.1067,1.1101,1.1102,1.1039,1.1032,1.1024,1.0956,1.1003,1.1,1.0997,1.0844,1.0842,1.084,0,0,0,0,0,0,1.1218,1.1208,1.1125,1.1162,1.1151,1.1132,1.111,1.1107,1.1091,1.1066,1.1062,1.1088,1.104,1.103,1.098,1.0954,1.0998,1.0994,1.0846,1.0844,1.0841,1.0819,0,0,0,0,0,0,1.1221,1.1209,1.1189,1.1161,1.1149,1.1083,1.1108,1.1105,1.1085,1.1087,1.1053,1.1049,1.104,1.0986,1.0976,1.0949,1.0991,1.0848,1.0845,1.0842,1.0822,1.0816,1.0811,0,0,0,0,0,1.1225,1.1183,1.1188,1.1178,1.1124,1.1082,1.1075,1.1067,1.1083,1.1062,1.1046,1.105,1.0959,1.0981,1.097,1.0941,1.085,1.0846,1.0842,1.0824,1.0817,1.0811,0,0,0,0,0,0,1.1205,1.1179,1.1184,1.1133,1.111,1.1083,1.1056,1.106,1.103,1.1032,1.1022,1.1015,1.0964,1.0948,1.0973,1.0885,1.0906,1.09,1.0897,1.0889,1.0884,1.0887,1.0987,0,0,0,0,0,1.1195,1.1165,1.1144,1.11,1.1089,1.1075,1.1056,1.1053,1.1027,1.1017,1.0997,1.097,1.0935,1.0912,1.0879,1.0821,1.0812,1.0795,1.079,1.0785,1.0779,1.0745,1.0737,1.0828,1.0828,1.0828,0,0,1.1173,1.1156,1.1137,1.1096,1.1078,1.1044,1.1066,1.103,1.1004,1.101,1.0962,1.0947,1.0916,1.0862,1.0837,1.0847,1.0752,1.0781,1.0777,1.0773,1.074,1.0732,1.0724,1.0825,1.0826,1.0826,0,0,1.1116,1.1101,1.1063,1.1045,1.1018,1.101,1.1001,1.0974,1.0965,1.0918,1.0921,1.089,1.0831,1.0808,1.0789,1.0726,1.0728,1.0716,1.0685,1.0653,1.0645,1.0639,1.0614,1.0605,1.071,1.071,1.071,0,1.109,1.1043,1.1042,1.1006,1.0987,1.0995,1.0955,1.0937,1.0899,1.0885,1.0898,1.0824,1.0804,1.0744,1.0729,1.0714,1.0701,1.0717,1.0647,1.0641,1.0634,1.061,1.0601,1.0708,1.0708,1.0709,1.0709,0,1.1013,1.098,1.0952,1.0919,1.0897,1.0859,1.085,1.0828,1.0828,1.0817,1.0768,1.0745,1.0707,1.0693,1.0691,1.0632,1.0639,1.065,1.0671,1.0624,1.0601,1.0592,1.0706,1.0707,1.0707,1.0707,0,0,1.0937,1.0906,1.0895,1.088,1.0853,1.0826,1.0789,1.0754,1.0734,1.0709,1.0675,1.0627,1.0637,1.0615,1.0611,1.0584,1.0532,1.0597,1.0596,1.0583,1.0463,1.0453,1.0442,1.0536,1.0534,1.0532,1.0465,0,1.0874,1.081,1.0809,1.0748,1.0717,1.0725,1.0692,1.067,1.066,1.063,1.0618,1.0582,1.06,1.0587,1.056,1.0544,1.0507,1.055,1.05,1.0498,1.0504,1.0431,1.0419,1.0356,1.0456,1.0455,1.0454,0,1.0792,1.0767,1.0704,1.0682,1.0669,1.0639,1.0608,1.058,1.0555,1.055,1.0527,1.0528,1.0487,1.0513,1.0455,1.0483,1.0464,1.0453,1.045,1.0442,1.047,1.0417,1.0336,1.0325,1.044,1.0441,1.0442,0,1.0739,1.069,1.0646,1.0634,1.0607,1.0586,1.0573,1.0551,1.053,1.0503,1.0489,1.0456,1.0437,1.041,1.0401,1.0421,1.0342,1.0368,1.0333,1.0333,1.0312,1.0313,1.0224,1.0306,1.0307,1.0307,1.0307,0,1.0667,1.0627,1.0622,1.0594,1.055,1.0549,1.0504,1.0493,1.0474,1.0442,1.0448,1.0418,1.041,1.0378,1.0371,1.0322,1.0314,1.0306,1.0304,1.0303,1.0304,1.0287,1.0289,1.0304,1.0305,1.0305,1.0306,0,1.0598,1.0594,1.0546,1.0527,1.0521,1.0488,1.047,1.0443,1.0435,1.0395,1.0386,1.0372,1.0335,1.0325,1.0279,1.0275,1.0216,1.022,1.0225,1.0224,1.0189,1.0191,1.0082,1.0066,1.0163,1.0162,1.0161,0,1.055,1.0521,1.0499,1.048,1.0468,1.0437,1.0417,1.0415,1.0394,1.0365,1.034,1.0305,1.0275,1.0215,1.0199,1.0164,1.0164,1.0129,1.0159,1.0159,1.0159,1.016,1.0155,1.0122,1.0121,1.012,1.0119,0,1.0465,1.0465,1.0438,1.041,1.0387,1.0364,1.0342,1.0326,1.0321,1.0296,1.026,1.0238,1.0193,1.0156,1.0122,1.0106,1.011,1.0111,1.01,1.0097,1.01,1.0094,1.0206,1.0112,1.0113,1.0113,1.0114,1.0114,1.0403,1.0376,1.0358,1.0327,1.0311,1.0291,1.0264,1.0255,1.0225,1.019,1.0192,1.0151,1.0127,1.0082,1.0065,1.0031,1.0042,1.0027,1.0023,1.0018,1.0013,1.011,1.0026,1.0026,1.0026,1.0026,1.0026,0,1.0315,1.0304,1.0276,1.0247,1.0223,1.0235,1.0211,1.0189,1.0154,1.0133,1.0106,1.0063,1.0028,1.0012,0.9976,0.9953,0.9954,0.9943,0.9942,0.9938,1.0008,1.0019,0.9943,0.9943,0.9943,0.9943,0.9943,0.9943,1.0266,1.0221,1.0219,1.0167,1.0156,1.0118,1.0104,1.0085,1.0068,1.0022,0.9994,0.9985,0.9965,0.9929,0.9896,0.9892,0.9877,0.9864,0.9861,0.9925,0.9933,0.9941,0.9951,0.9862,0.9862,0.9793,0.9792,0.9792]}]]